A/2022 B3

Japanese version
Home page
Updated on May 29, 2022

---------------------------------------------------------------------

* Profile

Discovery Date January 31, 2022
Magnitude 21.51 mag
Discoverer H. Groeller (Bok NEO Survey)

* Orbital Elements

Epoch 2022 Jan. 21.0 TT = JDT 2459600.5
T 2022 Jan. 17.68953 TT                                 Rudenko
q   3.6983247            (2000.0)            P               Q
z  +0.0011186      Peri.  150.70606     -0.55788482     +0.42467632
 +/-0.0000711      Node   286.18580     +0.54010783     +0.83810429
e   0.9958629      Incl.  132.05852     +0.63011749     -0.34239045
H   16.5
From 38 observations 2022 Jan. 31-Apr. 2, mean residual 0".3.

* Magnitudes Graph

        H = 16.0  G = 0.15

---------------------------------------------------------------------

The orbital elements are published on M.P.E.C. 2022-G109.
The magnitudes graphs are made with Comet for Windows.

---------------------------------------------------------------------

Copyright(C) Seiichi Yoshida (comet@aerith.net). All rights reserved.